Volver al catálogo

ATLAS 5 CENTAUR DEB

LostHEO
NORAD 46856·DEBRIS·🇺🇸 United States

Lanzado Oct 17, 2018 desde Cape Canaveral Space Force Station

Loading…

Próximos Pases (próximas 24 horas)

TLE

ObsoletoSource: Space-Track

Época: Sep 10, 2023, 10:18 UTC

1 46856U 18079DM  23253.42976332 -.00000053  00000-0  00000+0 0  9993
2 46856  11.3647 120.6002 4520074 161.8802 221.6793  1.93025800 20080

Sigue ATLAS 5 CENTAUR DEB en tiempo real con AllMySat

Download on the App Store